Flight Track Log - Related Links

Times and Time Zones

All times are in EDT time to prevent confusion due to time zone crossing. See the ASQ5958 flight status page for this flight to view local times or setup timezone preferences in your user account.

Time Position Orientation Groundspeed Altitude Reporting Facility
EDT Latitude Longitude Course Direction KTS MPH feet Rate Location/Type
Wed 07:52:53 AM 41.9667 -87.8500 186° South 172 198 3,900  Level Chicago TRACON
Wed 07:53:53 AM 41.9167 -87.7833 135° Southeast 238 274 5,100 436 Climbing Chicago TRACON
Wed 07:55:38 AM 41.8031 -87.7767 177° South 253 291 5,100 1,157 Level Chicago Center
Wed 07:56:39 AM 41.7150 -87.7722 178° South 263 303 8,300 2,878 Climbing Chicago Center
Wed 07:57:41 AM 41.6417 -87.7994 196° South 270 311 11,000 2,488 Climbing Chicago Center
Wed 07:58:00 AM 41.3960 -87.7740 186° South  Level Estimated
Wed 07:58:42 AM 41.5667 -87.8256 195° South 276 318 13,400  Level Chicago Center
Wed 07:59:44 AM 41.4869 -87.8533 195° South 289 333 15,300 1,561 Climbing Chicago Center
Wed 08:00:45 AM 41.3950 -87.8808 193° South 330 380 16,600 1,268 Climbing Chicago Center
Wed 08:01:47 AM 41.2917 -87.8886 183° South 356 410 17,900 1,065 Climbing Chicago Center
Wed 08:02:49 AM 41.1858 -87.8914 181° South 376 433 18,800 1,073 Climbing Chicago Center
Wed 08:03:50 AM 41.0767 -87.8875 178° South 389 448 20,100 1,220 Climbing Chicago Center
Wed 08:04:52 AM 40.9661 -87.8839 179° South 396 456 21,300 1,171 Climbing Chicago Center
Wed 08:05:53 AM 40.8553 -87.8808 179° South 401 461 22,500 1,317 Climbing Chicago Center
Wed 08:06:55 AM 40.7247 -87.9050 188° South 397 457 24,000 1,210 Climbing Chicago Center
Wed 08:07:57 AM 40.6164 -87.9267 189° South 395 455 25,000 488 Climbing Chicago Center
Wed 08:08:58 AM 40.5064 -87.9461 188° South 403 464 25,000  Level Chicago Center
Wed 08:10:00 AM 40.3892 -87.9728 190° South 418 481 25,000  Level Chicago Center
Wed 08:11:01 AM 40.2725 -87.9967 189° South 425 489 25,000  Level Chicago Center
Wed 08:12:03 AM 40.1561 -88.0167 187° South 422 486 25,000  Level Chicago Center
Wed 08:13:05 AM 40.0425 -88.0169 180° South 408 470 25,000  Level Chicago Center
Wed 08:14:06 AM 39.9275 -88.0011 174° South 413 475 25,000  Level Chicago Center
Wed 08:15:08 AM 39.7858 -87.9836 175° South 425 489 25,000  Level Chicago Center
Wed 08:16:01 AM 39.7008 -87.9733 175° South 425 489 25,000  Level Indianapolis Center
Wed 08:17:02 AM 39.5544 -87.9550 174° South 433 498 25,000  Level Indianapolis Center
Wed 08:18:03 AM 39.4306 -87.9411 175° South 441 507 25,000  Level Indianapolis Center
Wed 08:19:04 AM 39.3067 -87.9258 175° South 444 511 25,000  Level Indianapolis Center
Wed 08:20:05 AM 39.1850 -87.8878 166° South 448 516 25,000  Level Indianapolis Center
Wed 08:21:07 AM 39.0658 -87.8411 163° South 448 516 25,000  Level Indianapolis Center
Wed 08:22:08 AM 38.9442 -87.7986 165° South 450 518 25,000  Level Indianapolis Center
Wed 08:23:09 AM 38.8222 -87.7558 165° South 452 520 25,000  Level Indianapolis Center
Wed 08:24:11 AM 38.7022 -87.7142 165° South 448 516 25,000  Level Indianapolis Center
Wed 08:25:12 AM 38.5806 -87.6728 165° South 450 518 25,000  Level Indianapolis Center
Wed 08:26:13 AM 38.4614 -87.6308 165° South 447 514 25,000  Level Indianapolis Center
Wed 08:27:15 AM 38.3164 -87.5811 165° South 450 518 25,000  Level Indianapolis Center
Wed 08:28:16 AM 38.1961 -87.5397 165° South 452 520 25,000  Level Indianapolis Center
Wed 08:29:17 AM 38.0747 -87.4983 165° South 456 525 25,000  Level Indianapolis Center
Wed 08:30:18 AM 37.9525 -87.4564 165° South 457 526 25,000  Level Indianapolis Center
Wed 08:31:20 AM 37.8294 -87.4150 165° South 457 526 25,000  Level Indianapolis Center
Wed 08:32:21 AM 37.7083 -87.3736 165° South 459 528 25,000  Level Indianapolis Center
Wed 08:33:05 AM 37.5992 -87.3367 165° South 457 526 25,000 -346 Level Memphis Center
Wed 08:34:05 AM 37.4753 -87.2969 166° South 457 526 24,400 -1,000 Descending Memphis Center
Wed 08:35:05 AM 37.3556 -87.2597 166° South 452 520 23,000 -1,600 Descending Memphis Center
Wed 08:36:05 AM 37.2403 -87.2225 166° South 439 505 21,200 -1,750 Descending Memphis Center
Wed 08:37:05 AM 37.1228 -87.1883 167° South 439 505 19,500 -1,462 Descending Memphis Center
Wed 08:37:23 AM 37.0933 -87.1817 170° South 425 489 19,300 -1,200 Descending Memphis Center
Wed 08:38:05 AM 37.0114 -87.1564 166° South 423 487 18,300 -1,400 Descending Memphis Center
Wed 08:38:23 AM 36.9758 -87.1500 172° South 408 470 17,900 -1,100 Descending Memphis Center
Wed 08:39:05 AM 36.9128 -87.1264 163° South 409 471 17,200 -1,770 Descending Memphis Center
Wed 08:39:24 AM 36.8686 -87.1153 169° South 410 472 16,100 -2,500 Descending Memphis Center
Wed 08:40:05 AM 36.7992 -87.0897 164° South 409 471 14,700 -2,164 Descending Memphis Center
Wed 08:40:25 AM 36.7569 -87.0656 155° Southeast 391 450 13,900 -1,400 Descending Memphis Center
Wed 08:41:05 AM 36.7039 -87.0314 153° Southeast 398 458 13,300 -1,500 Descending Memphis Center
Wed 08:42:05 AM 36.6083 -86.9708 153° Southeast 387 445 11,400 -1,200 Descending Memphis Center
Wed 08:43:05 AM 36.5250 -86.8942 144° Southeast 377 434 10,900 -550 Descending Memphis Center
Wed 08:44:05 AM 36.4392 -86.8100 142° Southeast 370 426 10,300 -950 Descending Memphis Center
Wed 08:45:05 AM 36.3769 -86.7483 141° Southeast 324 373 9,000 -1,650 Descending Memphis Center
Wed 08:46:05 AM 36.3147 -86.6894 143° Southeast 295 339 7,000 -2,300 Descending Memphis Center
Wed 08:47:05 AM 36.2511 -86.6458 151° Southeast 269 310 4,400 -1,850 Descending Memphis Center
Wed 08:48:05 AM 36.1969 -86.6533 186° South 237 273 3,300 -1,500 Descending Memphis Center
Wed 08:49:05 AM 36.1600 -86.6706 201° Southwest 175 201 1,400 -1,300 Descending Memphis Center
Wed 08:50:05 AM 36.1186 -86.6803 191° South 162 186 700 3,800 Descending Memphis Center
Wed 08:51:05 AM 36.0772 -86.6897 190° South 162 186 9,000 8,300 Climbing Memphis Center

Login

Don't have an account? Register now (free) for customized features, flight alerts, and more!